Simultaneous Nadir Overpasses (SNOs) Predictions

Prediction of SNOs between METOP-C and LANDSAT-8 Satellite Orbit:

Table of predicted SNOs for the next 14.0 days since TLE Epoch: 6/1/2024
Index Date (METOP-C) Time (METOP-C) Lat,Lon (METOP-C) SZA (METOP-C ) Date (LANDSAT-8) Time (LANDSAT-8) Lat,Lon (LANDSAT-8) SZA (LANDSAT-8 ) Distance(km) Time Diff (sec)
1 06/02/2024 20:53:16 81.07, -94.49 60.86 06/02/2024 20:53:56 81.07, -94.33 60.89 2.74 40
2 06/02/2024 21:43:53 -81.12, 74.14 118.98 06/02/2024 21:43:21 -81.12, 74.00 119.01 2.45 32
3 06/05/2024 16:27:39 81.08, -27.76 60.57 06/05/2024 16:28:12 81.09, -27.66 60.60 1.76 33
4 06/05/2024 17:18:18 -81.11, 140.18 119.36 06/05/2024 17:17:38 -81.11, 140.33 119.36 2.66 40
5 06/08/2024 12:02:02 81.09, 38.89 60.32 06/08/2024 12:02:28 81.10, 38.88 60.34 0.34 26
6 06/08/2024 12:52:41 -81.12,-153.11 119.60 06/08/2024 12:51:54 -81.12,-153.11 119.61 0.49 47
7 06/11/2024 07:36:24 81.10, 105.46 60.12 06/11/2024 07:36:43 81.09, 105.30 60.11 2.74 19
8 06/11/2024 08:27:03 -81.12, -86.48 119.79 06/11/2024 08:26:09 -81.12, -86.66 119.84 3.17 54
9 06/14/2024 03:10:48 81.09, 171.58 59.91 06/14/2024 03:10:59 81.08, 171.60 59.92 0.55 11



Historial Predications of SNOs between METOP-C and LANDSAT-8
